Year,Month,Day,Hour,Minute,Value (Times are PST for temperature in C)
2012,05,26,00,00,12.30
2012,05,26,00,01,12.30
2012,05,26,00,02,12.30
2012,05,26,00,03,12.30
2012,05,26,00,04,12.30
2012,05,26,00,05,12.20
2012,05,26,00,06,12.20
2012,05,26,00,07,12.10
2012,05,26,00,08,12.10
2012,05,26,00,09,12.10
2012,05,26,00,10,12.10
2012,05,26,00,11,12.00
2012,05,26,00,12,12.00
2012,05,26,00,13,11.90
2012,05,26,00,14,11.90
2012,05,26,00,15,11.80
2012,05,26,00,16,11.80
2012,05,26,00,17,11.80
2012,05,26,00,18,11.80
2012,05,26,00,19,11.70
2012,05,26,00,20,11.70
2012,05,26,00,21,11.70
2012,05,26,00,22,11.70
2012,05,26,00,23,11.70
2012,05,26,00,24,11.70
2012,05,26,00,25,11.70
2012,05,26,00,26,11.70
2012,05,26,00,27,11.70
2012,05,26,00,28,11.70
2012,05,26,00,29,11.70
2012,05,26,00,30,11.80
2012,05,26,00,31,11.80
2012,05,26,00,32,11.80
2012,05,26,00,33,11.80
2012,05,26,00,34,11.80
2012,05,26,00,35,11.70
2012,05,26,00,36,11.70
2012,05,26,00,37,11.70
2012,05,26,00,38,11.60
2012,05,26,00,39,11.60
2012,05,26,00,40,11.60
2012,05,26,00,41,11.60
2012,05,26,00,42,11.50
2012,05,26,00,43,11.50
2012,05,26,00,44,11.40
2012,05,26,00,45,11.40
2012,05,26,00,46,11.40
2012,05,26,00,47,11.40
2012,05,26,00,48,11.40
2012,05,26,00,49,11.40
2012,05,26,00,50,11.30
2012,05,26,00,51,11.30
2012,05,26,00,52,11.30
2012,05,26,00,53,11.30
2012,05,26,00,54,11.20
2012,05,26,00,55,11.20
2012,05,26,00,56,11.20
2012,05,26,00,57,11.20
2012,05,26,00,58,11.20
2012,05,26,00,59,11.20
2012,05,26,01,00,11.20
2012,05,26,01,01,11.30
2012,05,26,01,02,11.30
2012,05,26,01,03,11.30
2012,05,26,01,04,11.30
2012,05,26,01,05,11.30
2012,05,26,01,06,11.30
2012,05,26,01,07,11.30
2012,05,26,01,08,11.20
2012,05,26,01,09,11.20
2012,05,26,01,10,11.10
2012,05,26,01,11,11.10
2012,05,26,01,12,11.10
2012,05,26,01,13,11.00
2012,05,26,01,14,11.00
2012,05,26,01,15,10.90
2012,05,26,01,16,10.90
2012,05,26,01,17,10.90
2012,05,26,01,18,10.80
2012,05,26,01,19,10.80
2012,05,26,01,20,10.90
2012,05,26,01,21,10.90
2012,05,26,01,22,10.90
2012,05,26,01,23,10.90
2012,05,26,01,24,10.90
2012,05,26,01,25,10.90
2012,05,26,01,26,10.90
2012,05,26,01,27,10.90
2012,05,26,01,28,10.90
2012,05,26,01,29,10.90
2012,05,26,01,30,11.00
2012,05,26,01,31,11.00
2012,05,26,01,32,11.10
2012,05,26,01,33,11.10
2012,05,26,01,34,11.10
2012,05,26,01,35,11.10
2012,05,26,01,36,11.10
2012,05,26,01,37,11.10
2012,05,26,01,38,11.20
2012,05,26,01,39,11.30
2012,05,26,01,40,11.30
2012,05,26,01,41,11.30
2012,05,26,01,42,11.40
2012,05,26,01,43,11.40
2012,05,26,01,44,11.40
2012,05,26,01,45,11.40
2012,05,26,01,46,11.40
2012,05,26,01,47,11.40
2012,05,26,01,48,11.50
2012,05,26,01,49,11.70
2012,05,26,01,50,11.90
2012,05,26,01,51,12.10
2012,05,26,01,52,12.30
2012,05,26,01,53,12.50
2012,05,26,01,54,12.80
2012,05,26,01,55,13.00
2012,05,26,01,56,13.20
2012,05,26,01,57,13.40
2012,05,26,01,58,13.50
2012,05,26,01,59,13.70
2012,05,26,02,00,13.70
2012,05,26,02,01,13.70
2012,05,26,02,02,13.60
2012,05,26,02,03,13.50
2012,05,26,02,04,13.40
2012,05,26,02,05,13.20
2012,05,26,02,06,13.10
2012,05,26,02,07,13.00
2012,05,26,02,08,12.80
2012,05,26,02,09,12.70
2012,05,26,02,10,12.50
2012,05,26,02,11,12.40
2012,05,26,02,12,12.20
2012,05,26,02,13,12.10
2012,05,26,02,14,12.00
2012,05,26,02,15,11.90
2012,05,26,02,16,11.80
2012,05,26,02,17,11.60
2012,05,26,02,18,11.50
2012,05,26,02,19,11.40
2012,05,26,02,20,11.30
2012,05,26,02,21,11.20
2012,05,26,02,22,11.10
2012,05,26,02,23,11.10
2012,05,26,02,24,11.10
2012,05,26,02,25,11.20
2012,05,26,02,26,11.30
2012,05,26,02,27,11.40
2012,05,26,02,28,11.60
2012,05,26,02,29,11.80
2012,05,26,02,30,11.80
2012,05,26,02,31,11.80
2012,05,26,02,32,11.80
2012,05,26,02,33,11.80
2012,05,26,02,34,11.70
2012,05,26,02,35,11.70
2012,05,26,02,36,11.80
2012,05,26,02,37,11.80
2012,05,26,02,38,12.00
2012,05,26,02,39,12.10
2012,05,26,02,40,12.10
2012,05,26,02,41,12.10
2012,05,26,02,42,12.10
2012,05,26,02,43,12.00
2012,05,26,02,44,11.90
2012,05,26,02,45,11.90
2012,05,26,02,46,11.80
2012,05,26,02,47,11.70
2012,05,26,02,48,11.60
2012,05,26,02,49,11.50
2012,05,26,02,50,11.40
2012,05,26,02,51,11.40
2012,05,26,02,52,11.30
2012,05,26,02,53,11.20
2012,05,26,02,54,11.20
2012,05,26,02,55,11.10
2012,05,26,02,56,11.10
2012,05,26,02,57,11.10
2012,05,26,02,58,11.10
2012,05,26,02,59,11.10
2012,05,26,03,00,11.00
2012,05,26,03,01,11.00
2012,05,26,03,02,10.90
2012,05,26,03,03,10.90
2012,05,26,03,04,10.80
2012,05,26,03,05,10.80
2012,05,26,03,06,10.80
2012,05,26,03,07,10.80
2012,05,26,03,08,10.70
2012,05,26,03,09,10.70
2012,05,26,03,10,10.70
2012,05,26,03,11,10.70
2012,05,26,03,12,10.70
2012,05,26,03,13,10.60
2012,05,26,03,14,10.60
2012,05,26,03,15,10.60
2012,05,26,03,16,10.60
2012,05,26,03,17,10.60
2012,05,26,03,18,10.70
2012,05,26,03,19,10.70
2012,05,26,03,20,10.70
2012,05,26,03,21,10.70
2012,05,26,03,22,10.70
2012,05,26,03,23,10.70
2012,05,26,03,24,10.60
2012,05,26,03,25,10.60
2012,05,26,03,26,10.60
2012,05,26,03,27,10.50
2012,05,26,03,28,10.40
2012,05,26,03,29,10.40
2012,05,26,03,30,10.40
2012,05,26,03,31,10.30
2012,05,26,03,32,10.30
2012,05,26,03,33,10.30
2012,05,26,03,34,10.30
2012,05,26,03,35,10.30
2012,05,26,03,36,10.30
2012,05,26,03,37,10.30
2012,05,26,03,38,10.30
2012,05,26,03,39,10.30
2012,05,26,03,40,10.30
2012,05,26,03,41,10.30
2012,05,26,03,42,10.30
2012,05,26,03,43,10.30
2012,05,26,03,44,10.40
2012,05,26,03,45,10.40
2012,05,26,03,46,10.50
2012,05,26,03,47,10.60
2012,05,26,03,48,10.70
2012,05,26,03,49,10.80
2012,05,26,03,50,10.80
2012,05,26,03,51,10.80
2012,05,26,03,52,10.80
2012,05,26,03,53,10.80
2012,05,26,03,54,10.80
2012,05,26,03,55,10.70
2012,05,26,03,56,10.60
2012,05,26,03,57,10.60
2012,05,26,03,58,10.50
2012,05,26,03,59,10.40
2012,05,26,04,00,10.40
2012,05,26,04,01,10.40
2012,05,26,04,02,10.30
2012,05,26,04,03,10.30
2012,05,26,04,04,10.30
2012,05,26,04,05,10.20
2012,05,26,04,06,10.20
2012,05,26,04,07,10.10
2012,05,26,04,08,10.10
2012,05,26,04,09,10.00
2012,05,26,04,10,10.00
2012,05,26,04,11,9.90
2012,05,26,04,12,9.90
2012,05,26,04,13,10.00
2012,05,26,04,14,10.00
2012,05,26,04,15,10.10
2012,05,26,04,16,10.10
2012,05,26,04,17,10.10
2012,05,26,04,18,10.20
2012,05,26,04,19,10.20
2012,05,26,04,20,10.20
2012,05,26,04,21,10.20
2012,05,26,04,22,10.20
2012,05,26,04,23,10.20
2012,05,26,04,24,10.20
2012,05,26,04,25,10.30
2012,05,26,04,26,10.30
2012,05,26,04,27,10.30
2012,05,26,04,28,10.30
2012,05,26,04,29,10.30
2012,05,26,04,30,10.30
2012,05,26,04,31,10.40
2012,05,26,04,32,10.40
2012,05,26,04,33,10.40
2012,05,26,04,34,10.30
2012,05,26,04,35,10.30
2012,05,26,04,36,10.30
2012,05,26,04,37,10.30
2012,05,26,04,38,10.40
2012,05,26,04,39,10.40
2012,05,26,04,40,10.50
2012,05,26,04,41,10.50
2012,05,26,04,42,10.60
2012,05,26,04,43,10.60
2012,05,26,04,44,10.60
2012,05,26,04,45,10.50
2012,05,26,04,46,10.50
2012,05,26,04,47,10.40
2012,05,26,04,48,10.40
2012,05,26,04,49,10.40
2012,05,26,04,50,10.30
2012,05,26,04,51,10.30
2012,05,26,04,52,10.20
2012,05,26,04,53,10.20
2012,05,26,04,54,10.20
2012,05,26,04,55,10.10
2012,05,26,04,56,10.10
2012,05,26,04,57,10.10
2012,05,26,04,58,10.10
2012,05,26,04,59,10.10
2012,05,26,05,00,10.00
2012,05,26,05,01,10.00
2012,05,26,05,02,10.00
2012,05,26,05,03,10.00
2012,05,26,05,04,9.90
2012,05,26,05,05,9.90
2012,05,26,05,06,9.80
2012,05,26,05,07,9.80
2012,05,26,05,08,9.80
2012,05,26,05,09,9.70
2012,05,26,05,10,9.70
2012,05,26,05,11,9.70
2012,05,26,05,12,9.70
2012,05,26,05,13,9.60
2012,05,26,05,14,9.60
2012,05,26,05,15,9.60
2012,05,26,05,16,9.60
2012,05,26,05,17,9.60
2012,05,26,05,18,9.60
2012,05,26,05,19,9.60
2012,05,26,05,20,9.60
2012,05,26,05,21,9.60
2012,05,26,05,22,9.50
2012,05,26,05,23,9.50
2012,05,26,05,24,9.40
2012,05,26,05,25,9.40
2012,05,26,05,26,9.40
2012,05,26,05,27,9.40
2012,05,26,05,28,9.30
2012,05,26,05,29,9.30
2012,05,26,05,30,9.30
2012,05,26,05,31,9.30
2012,05,26,05,32,9.40
2012,05,26,05,33,9.50
2012,05,26,05,34,9.50
2012,05,26,05,35,9.60
2012,05,26,05,36,9.60
2012,05,26,05,37,9.70
2012,05,26,05,38,9.70
2012,05,26,05,39,9.80
2012,05,26,05,40,9.80
2012,05,26,05,41,9.90
2012,05,26,05,42,9.90
2012,05,26,05,43,9.90
2012,05,26,05,44,9.90
2012,05,26,05,45,9.90
2012,05,26,05,46,9.80
2012,05,26,05,47,9.80
2012,05,26,05,48,9.80
2012,05,26,05,49,9.80
2012,05,26,05,50,9.80
2012,05,26,05,51,9.80
2012,05,26,05,52,9.80
2012,05,26,05,53,9.70
2012,05,26,05,54,9.70
2012,05,26,05,55,9.70
2012,05,26,05,56,9.70
2012,05,26,05,57,9.60
2012,05,26,05,58,9.60
2012,05,26,05,59,9.60
2012,05,26,06,00,9.60
2012,05,26,06,01,9.60
2012,05,26,06,02,9.60
2012,05,26,06,03,9.60
2012,05,26,06,04,9.60
2012,05,26,06,05,9.60
2012,05,26,06,06,9.60
2012,05,26,06,07,9.60
2012,05,26,06,08,9.60
2012,05,26,06,09,9.60
2012,05,26,06,10,9.60
2012,05,26,06,11,9.60
2012,05,26,06,12,9.60
2012,05,26,06,13,9.60
2012,05,26,06,14,9.60
2012,05,26,06,15,9.50
2012,05,26,06,16,9.50
2012,05,26,06,17,9.50
2012,05,26,06,18,9.40
2012,05,26,06,19,9.40
2012,05,26,06,20,9.50
2012,05,26,06,21,9.50
2012,05,26,06,22,9.60
2012,05,26,06,23,9.70
2012,05,26,06,24,9.70
2012,05,26,06,25,9.80
2012,05,26,06,26,9.90
2012,05,26,06,27,10.00
2012,05,26,06,28,10.10
2012,05,26,06,29,10.20
2012,05,26,06,30,10.30
2012,05,26,06,31,10.50
2012,05,26,06,32,10.70
2012,05,26,06,33,10.80
2012,05,26,06,34,11.00
2012,05,26,06,35,11.10
2012,05,26,06,36,11.30
2012,05,26,06,37,11.40
2012,05,26,06,38,11.50
2012,05,26,06,39,11.60
2012,05,26,06,40,11.70
2012,05,26,06,41,11.80
2012,05,26,06,42,11.80
2012,05,26,06,43,11.90
2012,05,26,06,44,12.00
2012,05,26,06,45,12.10
2012,05,26,06,46,12.10
2012,05,26,06,47,12.10
2012,05,26,06,48,12.20
2012,05,26,06,49,12.20
2012,05,26,06,50,12.10
2012,05,26,06,51,12.10
2012,05,26,06,52,12.00
2012,05,26,06,53,12.00
2012,05,26,06,54,11.90
2012,05,26,06,55,11.90
2012,05,26,06,56,11.90
2012,05,26,06,57,12.00
2012,05,26,06,58,12.00
2012,05,26,06,59,12.10
2012,05,26,07,00,12.20
2012,05,26,07,01,12.30
2012,05,26,07,02,12.40
2012,05,26,07,03,12.50
2012,05,26,07,04,12.50
2012,05,26,07,05,12.60
2012,05,26,07,06,12.60
2012,05,26,07,07,12.70
2012,05,26,07,08,12.70
2012,05,26,07,09,12.80
2012,05,26,07,10,12.80
2012,05,26,07,11,12.90
2012,05,26,07,12,12.90
2012,05,26,07,13,13.00
2012,05,26,07,14,13.10
2012,05,26,07,15,13.20
2012,05,26,07,16,13.20
2012,05,26,07,17,13.30
2012,05,26,07,18,13.40
2012,05,26,07,19,13.40
2012,05,26,07,20,13.50
2012,05,26,07,21,13.60
2012,05,26,07,22,13.70
2012,05,26,07,23,13.80
2012,05,26,07,24,13.80
2012,05,26,07,25,13.90
2012,05,26,07,26,14.10
2012,05,26,07,27,14.20
2012,05,26,07,28,14.20
2012,05,26,07,29,14.30
2012,05,26,07,30,14.30
2012,05,26,07,31,14.40
2012,05,26,07,32,14.40
2012,05,26,07,33,14.50
2012,05,26,07,34,14.60
2012,05,26,07,35,14.70
2012,05,26,07,36,14.80
2012,05,26,07,37,14.90
2012,05,26,07,38,15.00
2012,05,26,07,39,15.10
2012,05,26,07,40,15.20
2012,05,26,07,41,15.30
2012,05,26,07,42,15.50
2012,05,26,07,43,15.60
2012,05,26,07,44,15.70
2012,05,26,07,45,15.80
2012,05,26,07,46,15.80
2012,05,26,07,47,15.90
2012,05,26,07,48,16.00
2012,05,26,07,49,16.00
2012,05,26,07,50,16.10
2012,05,26,07,51,16.20
2012,05,26,07,52,16.20
2012,05,26,07,53,16.20
2012,05,26,07,54,16.20
2012,05,26,07,55,16.10
2012,05,26,07,56,16.00
2012,05,26,07,57,16.00
2012,05,26,07,58,15.90
2012,05,26,07,59,15.80
2012,05,26,08,00,15.70
2012,05,26,08,01,15.60
2012,05,26,08,02,15.50
2012,05,26,08,03,15.50
2012,05,26,08,04,15.40
2012,05,26,08,05,15.40
2012,05,26,08,06,15.40
2012,05,26,08,07,15.40
2012,05,26,08,08,15.40
2012,05,26,08,09,15.40
2012,05,26,08,10,15.40
2012,05,26,08,11,15.50
2012,05,26,08,12,15.60
2012,05,26,08,13,15.70
2012,05,26,08,14,15.80
2012,05,26,08,15,15.80
2012,05,26,08,16,15.90
2012,05,26,08,17,16.00
2012,05,26,08,18,16.10
2012,05,26,08,19,16.20
2012,05,26,08,20,16.30
2012,05,26,08,21,16.40
2012,05,26,08,22,16.50
2012,05,26,08,23,16.60
2012,05,26,08,24,16.70
2012,05,26,08,25,16.70
2012,05,26,08,26,16.80
2012,05,26,08,27,16.80
2012,05,26,08,28,16.90
2012,05,26,08,29,16.90
2012,05,26,08,30,16.90
2012,05,26,08,31,16.90
2012,05,26,08,32,16.90
2012,05,26,08,33,16.90
2012,05,26,08,34,16.90
2012,05,26,08,35,16.80
2012,05,26,08,36,16.90
2012,05,26,08,37,16.90
2012,05,26,08,38,16.90
2012,05,26,08,39,17.00
2012,05,26,08,40,17.10
2012,05,26,08,41,17.10
2012,05,26,08,42,17.20
2012,05,26,08,43,17.20
2012,05,26,08,44,17.20
2012,05,26,08,45,17.20
2012,05,26,08,46,17.20
2012,05,26,08,47,17.20
2012,05,26,08,48,17.30
2012,05,26,08,49,17.30
2012,05,26,08,50,17.40
2012,05,26,08,51,17.40
2012,05,26,08,52,17.40
2012,05,26,08,53,17.40
2012,05,26,08,54,17.40
2012,05,26,08,55,17.40
2012,05,26,08,56,17.40
2012,05,26,08,57,17.50
2012,05,26,08,58,17.60
2012,05,26,08,59,17.70
2012,05,26,09,00,17.70
2012,05,26,09,01,17.70
2012,05,26,09,02,17.70
2012,05,26,09,03,17.70
2012,05,26,09,04,17.70
2012,05,26,09,05,17.70
2012,05,26,09,06,17.70
2012,05,26,09,07,17.70
2012,05,26,09,08,17.60
2012,05,26,09,09,17.60
2012,05,26,09,10,17.60
2012,05,26,09,11,17.60
2012,05,26,09,12,17.50
2012,05,26,09,13,17.50
2012,05,26,09,14,17.30
2012,05,26,09,15,17.20
2012,05,26,09,16,17.20
2012,05,26,09,17,17.10
2012,05,26,09,18,17.10
2012,05,26,09,19,17.10
2012,05,26,09,20,17.10
2012,05,26,09,21,17.00
2012,05,26,09,22,17.00
2012,05,26,09,23,17.10
2012,05,26,09,24,17.10
2012,05,26,09,25,17.20
2012,05,26,09,26,17.30
2012,05,26,09,27,17.40
2012,05,26,09,28,17.40
2012,05,26,09,29,17.40
2012,05,26,09,30,17.40
2012,05,26,09,31,17.30
2012,05,26,09,32,17.10
2012,05,26,09,33,17.00
2012,05,26,09,34,17.00
2012,05,26,09,35,17.00
2012,05,26,09,36,17.10
2012,05,26,09,37,17.10
2012,05,26,09,38,17.20
2012,05,26,09,39,17.30
2012,05,26,09,40,17.40
2012,05,26,09,41,17.50
2012,05,26,09,42,17.60
2012,05,26,09,43,17.70
2012,05,26,09,44,17.80
2012,05,26,09,45,17.90
2012,05,26,09,46,18.00
2012,05,26,09,47,18.10
2012,05,26,09,48,18.10
2012,05,26,09,49,18.20
2012,05,26,09,50,18.20
2012,05,26,09,51,18.20
2012,05,26,09,52,18.20
2012,05,26,09,53,18.20
2012,05,26,09,54,18.10
2012,05,26,09,55,18.10
2012,05,26,09,56,18.10
2012,05,26,09,57,18.10
2012,05,26,09,58,18.00
2012,05,26,09,59,18.00
2012,05,26,10,00,17.90
2012,05,26,10,01,17.80
2012,05,26,10,02,17.70
2012,05,26,10,03,17.70
2012,05,26,10,04,17.70
2012,05,26,10,05,17.70
2012,05,26,10,06,17.70
2012,05,26,10,07,17.70
2012,05,26,10,08,17.70
2012,05,26,10,09,17.70
2012,05,26,10,10,17.70
2012,05,26,10,11,17.80
2012,05,26,10,12,17.80
2012,05,26,10,13,17.90
2012,05,26,10,14,17.90
2012,05,26,10,15,17.90
2012,05,26,10,16,18.00
2012,05,26,10,17,18.00
2012,05,26,10,18,18.10
2012,05,26,10,19,18.10
2012,05,26,10,20,18.10
2012,05,26,10,21,18.20
2012,05,26,10,22,18.20
2012,05,26,10,23,18.20
2012,05,26,10,24,18.20
2012,05,26,10,25,18.20
2012,05,26,10,26,18.20
2012,05,26,10,27,18.20
2012,05,26,10,28,18.30
2012,05,26,10,29,18.40
2012,05,26,10,30,18.40
2012,05,26,10,31,18.40
2012,05,26,10,32,18.40
2012,05,26,10,33,18.30
2012,05,26,10,34,18.20
2012,05,26,10,35,18.10
2012,05,26,10,36,18.00
2012,05,26,10,37,17.90
2012,05,26,10,38,17.90
2012,05,26,10,39,17.90
2012,05,26,10,40,18.00
2012,05,26,10,41,18.10
2012,05,26,10,42,18.20
2012,05,26,10,43,18.20
2012,05,26,10,44,18.10
2012,05,26,10,45,18.10
2012,05,26,10,46,18.10
2012,05,26,10,47,18.10
2012,05,26,10,48,18.10
2012,05,26,10,49,18.10
2012,05,26,10,50,18.10
2012,05,26,10,51,18.10
2012,05,26,10,52,18.20
2012,05,26,10,53,18.20
2012,05,26,10,54,18.20
2012,05,26,10,55,18.30
2012,05,26,10,56,18.30
2012,05,26,10,57,18.40
2012,05,26,10,58,18.50
2012,05,26,10,59,18.50
2012,05,26,11,00,18.60
2012,05,26,11,01,18.60
2012,05,26,11,02,18.60
2012,05,26,11,03,18.50
2012,05,26,11,04,18.50
2012,05,26,11,05,18.40
2012,05,26,11,06,18.50
2012,05,26,11,07,18.50
2012,05,26,11,08,18.50
2012,05,26,11,09,18.50
2012,05,26,11,10,18.60
2012,05,26,11,11,18.60
2012,05,26,11,12,18.60
2012,05,26,11,13,18.50
2012,05,26,11,14,18.50
2012,05,26,11,15,18.40
2012,05,26,11,16,18.40
2012,05,26,11,17,18.30
2012,05,26,11,18,18.20
2012,05,26,11,19,18.10
2012,05,26,11,20,18.10
2012,05,26,11,21,18.10
2012,05,26,11,22,18.10
2012,05,26,11,23,18.10
2012,05,26,11,24,18.10
2012,05,26,11,25,18.20
2012,05,26,11,26,18.20
2012,05,26,11,27,18.20
2012,05,26,11,28,18.20
2012,05,26,11,29,18.20
2012,05,26,11,30,18.20
2012,05,26,11,31,18.20
2012,05,26,11,32,18.20
2012,05,26,11,33,18.20
2012,05,26,11,34,18.40
2012,05,26,11,35,18.50
2012,05,26,11,36,18.60
2012,05,26,11,37,18.60
2012,05,26,11,38,18.60
2012,05,26,11,39,18.60
2012,05,26,11,40,18.60
2012,05,26,11,41,18.60
2012,05,26,11,42,18.60
2012,05,26,11,43,18.60
2012,05,26,11,44,18.50
2012,05,26,11,45,18.40
2012,05,26,11,46,18.30
2012,05,26,11,47,18.20
2012,05,26,11,48,18.10
2012,05,26,11,49,18.10
2012,05,26,11,50,18.10
2012,05,26,11,51,18.10
2012,05,26,11,52,18.00
2012,05,26,11,53,17.90
2012,05,26,11,54,17.80
2012,05,26,11,55,17.80
2012,05,26,11,56,17.80
2012,05,26,11,57,17.70
2012,05,26,11,58,17.60
2012,05,26,11,59,17.60
2012,05,26,12,00,17.50
2012,05,26,12,01,17.40
2012,05,26,12,02,17.40
2012,05,26,12,03,17.60
2012,05,26,12,04,17.70
2012,05,26,12,05,17.80
2012,05,26,12,06,17.70
2012,05,26,12,07,17.50
2012,05,26,12,08,17.30
2012,05,26,12,09,17.20
2012,05,26,12,10,17.20
2012,05,26,12,11,17.10
2012,05,26,12,12,17.10
2012,05,26,12,13,17.10
2012,05,26,12,14,17.10
2012,05,26,12,15,17.20
2012,05,26,12,16,17.30
2012,05,26,12,17,17.30
2012,05,26,12,18,17.40
2012,05,26,12,19,17.50
2012,05,26,12,20,17.50
2012,05,26,12,21,17.60
2012,05,26,12,22,17.50
2012,05,26,12,23,17.50
2012,05,26,12,24,17.40
2012,05,26,12,25,17.20
2012,05,26,12,26,17.00
2012,05,26,12,27,16.90
2012,05,26,12,28,16.80
2012,05,26,12,29,16.70
2012,05,26,12,30,16.70
2012,05,26,12,31,16.70
2012,05,26,12,32,16.80
2012,05,26,12,33,16.80
2012,05,26,12,34,16.70
2012,05,26,12,35,16.70
2012,05,26,12,36,16.70
2012,05,26,12,37,16.70
2012,05,26,12,38,16.70
2012,05,26,12,39,16.70
2012,05,26,12,40,16.70
2012,05,26,12,41,16.70
2012,05,26,12,42,16.80
2012,05,26,12,43,16.80
2012,05,26,12,44,16.80
2012,05,26,12,45,16.80
2012,05,26,12,46,16.80
2012,05,26,12,47,16.90
2012,05,26,12,48,17.00
2012,05,26,12,49,17.00
2012,05,26,12,50,17.10
2012,05,26,12,51,17.20
2012,05,26,12,52,17.30
2012,05,26,12,53,17.30
2012,05,26,12,54,17.40
2012,05,26,12,55,17.40
2012,05,26,12,56,17.40
2012,05,26,12,57,17.50
2012,05,26,12,58,17.60
2012,05,26,12,59,17.70
2012,05,26,13,00,17.70
2012,05,26,13,01,17.60
2012,05,26,13,02,17.60
2012,05,26,13,03,17.60
2012,05,26,13,04,17.70
2012,05,26,13,05,17.70
2012,05,26,13,06,17.80
2012,05,26,13,07,17.80
2012,05,26,13,08,17.80
2012,05,26,13,09,17.80
2012,05,26,13,10,17.80
2012,05,26,13,11,17.80
2012,05,26,13,12,17.80
2012,05,26,13,13,17.80
2012,05,26,13,14,17.90
2012,05,26,13,15,17.90
2012,05,26,13,16,17.90
2012,05,26,13,17,17.80
2012,05,26,13,18,17.80
2012,05,26,13,19,17.80
2012,05,26,13,20,17.80
2012,05,26,13,21,17.80
2012,05,26,13,22,17.80
2012,05,26,13,23,17.70
2012,05,26,13,24,17.80
2012,05,26,13,25,17.80
2012,05,26,13,26,17.70
2012,05,26,13,27,17.70
2012,05,26,13,28,17.70
2012,05,26,13,29,17.60
2012,05,26,13,30,17.50
2012,05,26,13,31,17.50
2012,05,26,13,32,17.40
2012,05,26,13,33,17.40
2012,05,26,13,34,17.40
2012,05,26,13,35,17.40
2012,05,26,13,36,17.40
2012,05,26,13,37,17.50
2012,05,26,13,38,17.50
2012,05,26,13,39,17.50
2012,05,26,13,40,17.50
2012,05,26,13,41,17.60
2012,05,26,13,42,17.70
2012,05,26,13,43,17.70
2012,05,26,13,44,17.80
2012,05,26,13,45,17.90
2012,05,26,13,46,18.10
2012,05,26,13,47,18.30
2012,05,26,13,48,18.40
2012,05,26,13,49,18.50
2012,05,26,13,50,18.60
2012,05,26,13,51,18.60
2012,05,26,13,52,18.70
2012,05,26,13,53,18.80
2012,05,26,13,54,18.90
2012,05,26,13,55,19.00
2012,05,26,13,56,19.10
2012,05,26,13,57,19.30
2012,05,26,13,58,19.40
2012,05,26,13,59,19.60
2012,05,26,14,00,19.70
2012,05,26,14,01,19.70
2012,05,26,14,02,19.80
2012,05,26,14,03,19.90
2012,05,26,14,04,20.00
2012,05,26,14,05,20.00
2012,05,26,14,06,20.10
2012,05,26,14,07,20.10
2012,05,26,14,08,20.10
2012,05,26,14,09,20.10
2012,05,26,14,10,20.10
2012,05,26,14,11,20.10
2012,05,26,14,12,20.10
2012,05,26,14,13,20.10
2012,05,26,14,14,20.10
2012,05,26,14,15,20.10
2012,05,26,14,16,20.10
2012,05,26,14,17,20.10
2012,05,26,14,18,20.10
2012,05,26,14,19,20.00
2012,05,26,14,20,20.00
2012,05,26,14,21,20.00
2012,05,26,14,22,19.90
2012,05,26,14,23,19.80
2012,05,26,14,24,19.70
2012,05,26,14,25,19.60
2012,05,26,14,26,19.40
2012,05,26,14,27,19.30
2012,05,26,14,28,19.10
2012,05,26,14,29,19.00
2012,05,26,14,30,18.90
2012,05,26,14,31,18.90
2012,05,26,14,32,19.00
2012,05,26,14,33,19.10
2012,05,26,14,34,19.20
2012,05,26,14,35,19.30
2012,05,26,14,36,19.40
2012,05,26,14,37,19.50
2012,05,26,14,38,19.60
2012,05,26,14,39,19.60
2012,05,26,14,40,19.70
2012,05,26,14,41,19.70
2012,05,26,14,42,19.70
2012,05,26,14,43,19.70
2012,05,26,14,44,19.80
2012,05,26,14,45,19.80
2012,05,26,14,46,19.90
2012,05,26,14,47,19.90
2012,05,26,14,48,20.00
2012,05,26,14,49,20.10
2012,05,26,14,50,20.20
2012,05,26,14,51,20.30
2012,05,26,14,52,20.30
2012,05,26,14,53,20.30
2012,05,26,14,54,20.30
2012,05,26,14,55,20.30
2012,05,26,14,56,20.40
2012,05,26,14,57,20.50
2012,05,26,14,58,20.60
2012,05,26,14,59,20.60
2012,05,26,15,00,20.50
2012,05,26,15,01,20.40
2012,05,26,15,02,20.30
2012,05,26,15,03,20.20
2012,05,26,15,04,20.20
2012,05,26,15,05,20.10
2012,05,26,15,06,20.00
2012,05,26,15,07,19.90
2012,05,26,15,08,19.90
2012,05,26,15,09,19.80
2012,05,26,15,10,19.80
2012,05,26,15,11,19.80
2012,05,26,15,12,19.90
2012,05,26,15,13,20.00
2012,05,26,15,14,20.10
2012,05,26,15,15,20.20
2012,05,26,15,16,20.20
2012,05,26,15,17,20.20
2012,05,26,15,18,20.20
2012,05,26,15,19,20.20
2012,05,26,15,20,20.20
2012,05,26,15,21,20.20
2012,05,26,15,22,20.20
2012,05,26,15,23,20.10
2012,05,26,15,24,20.10
2012,05,26,15,25,20.10
2012,05,26,15,26,20.10
2012,05,26,15,27,20.10
2012,05,26,15,28,20.10
2012,05,26,15,29,20.10
2012,05,26,15,30,20.10
2012,05,26,15,31,20.10
2012,05,26,15,32,20.00
2012,05,26,15,33,20.00
2012,05,26,15,34,19.90
2012,05,26,15,35,19.80
2012,05,26,15,36,19.80
2012,05,26,15,37,19.80
2012,05,26,15,38,19.90
2012,05,26,15,39,19.90
2012,05,26,15,40,19.90
2012,05,26,15,41,19.90
2012,05,26,15,42,20.00
2012,05,26,15,43,20.10
2012,05,26,15,44,20.10
2012,05,26,15,45,20.10
2012,05,26,15,46,20.20
2012,05,26,15,47,20.20
2012,05,26,15,48,20.20
2012,05,26,15,49,20.30
2012,05,26,15,50,20.20
2012,05,26,15,51,20.20
2012,05,26,15,52,20.10
2012,05,26,15,53,20.10
2012,05,26,15,54,20.10
2012,05,26,15,55,20.10
2012,05,26,15,56,20.10
2012,05,26,15,57,20.00
2012,05,26,15,58,20.00
2012,05,26,15,59,19.90
2012,05,26,16,00,19.90
2012,05,26,16,01,19.80
2012,05,26,16,02,19.80
2012,05,26,16,03,19.80
2012,05,26,16,04,19.80
2012,05,26,16,05,19.80
2012,05,26,16,06,19.70
2012,05,26,16,07,19.50
2012,05,26,16,08,19.30
2012,05,26,16,09,19.10
2012,05,26,16,10,18.90
2012,05,26,16,11,18.80
2012,05,26,16,12,18.70
2012,05,26,16,13,18.70
2012,05,26,16,14,18.80
2012,05,26,16,15,18.80
2012,05,26,16,16,18.90
2012,05,26,16,17,18.90
2012,05,26,16,18,19.00
2012,05,26,16,19,19.00
2012,05,26,16,20,18.90
2012,05,26,16,21,19.00
2012,05,26,16,22,19.10
2012,05,26,16,23,19.10
2012,05,26,16,24,19.10
2012,05,26,16,25,19.00
2012,05,26,16,26,18.90
2012,05,26,16,27,18.90
2012,05,26,16,28,18.90
2012,05,26,16,29,18.90
2012,05,26,16,30,19.00
2012,05,26,16,31,19.00
2012,05,26,16,32,19.00
2012,05,26,16,33,19.00
2012,05,26,16,34,18.90
2012,05,26,16,35,18.80
2012,05,26,16,36,18.70
2012,05,26,16,37,18.70
2012,05,26,16,38,18.70
2012,05,26,16,39,18.70
2012,05,26,16,40,18.60
2012,05,26,16,41,18.60
2012,05,26,16,42,18.50
2012,05,26,16,43,18.40
2012,05,26,16,44,18.30
2012,05,26,16,45,18.20
2012,05,26,16,46,18.20
2012,05,26,16,47,18.30
2012,05,26,16,48,18.40
2012,05,26,16,49,18.50
2012,05,26,16,50,18.60
2012,05,26,16,51,18.60
2012,05,26,16,52,18.60
2012,05,26,16,53,18.70
2012,05,26,16,54,18.60
2012,05,26,16,55,18.50
2012,05,26,16,56,18.40
2012,05,26,16,57,18.40
2012,05,26,16,58,18.40
2012,05,26,16,59,18.50
2012,05,26,17,00,18.60
2012,05,26,17,01,18.70
2012,05,26,17,02,18.70
2012,05,26,17,03,18.80
2012,05,26,17,04,18.80
2012,05,26,17,05,18.70
2012,05,26,17,06,18.60
2012,05,26,17,07,18.60
2012,05,26,17,08,18.50
2012,05,26,17,09,18.50
2012,05,26,17,10,18.50
2012,05,26,17,11,18.50
2012,05,26,17,12,18.60
2012,05,26,17,13,18.60
2012,05,26,17,14,18.60
2012,05,26,17,15,18.50
2012,05,26,17,16,18.40
2012,05,26,17,17,18.40
2012,05,26,17,18,18.50
2012,05,26,17,19,18.60
2012,05,26,17,20,18.70
2012,05,26,17,21,18.80
2012,05,26,17,22,18.80
2012,05,26,17,23,18.80